DW9936 Weather Reports


time (UTC)temp
C
wind
direction
speed
KPH
gust
KPH
rain 1hr
cm
rain 24hr
cm
rain mn
cm
humidity
%
barometer
mb
20260508213032 14 65 0.0 4.8 0.00 0.00 0.00 70 1018.3
20260508211526 15 87 0.0 3.2 0.00 0.00 0.00 68 1018.2
20260508210023 15 89 0.0 1.6 0.00 0.00 0.00 66 1018.0
20260508204523 15 142 0.0 11.3 0.00 0.00 0.00 64 1017.9
20260508203021 15 98 0.0 4.8 0.00 0.00 0.00 62 1017.6
20260508201520 16 92 0.0 4.8 0.00 0.00 0.00 60 1017.5
20260508200035 16 211 0.0 3.2 0.00 0.00 0.00 58 1017.4
20260508194518 15 297 0.0 1.6 0.00 0.00 0.00 58 1017.2
20260508193019 15 57 0.0 1.6 0.00 0.00 0.00 58 1017.0
20260508191518 16 63 0.0 0.0 0.00 0.00 0.00 57 1016.7
20260508190019 16 63 0.0 0.0 0.00 0.00 0.00 56 1016.5
20260508184524 16 63 0.0 1.6 0.00 0.00 0.00 54 1016.4
20260508183015 17 267 0.0 0.0 0.00 0.00 0.00 53 1016.1
20260508181515 17 267 0.0 0.0 0.00 0.00 0.00 51 1015.8
20260508180014 18 267 0.0 3.2 0.00 0.00 0.00 49 1015.6
20260508174514 18 49 0.0 3.2 0.00 0.00 0.00 47 1015.4
20260508173017 19 67 1.6 6.4 0.00 0.00 0.00 46 1015.3
20260508171528 20 169 0.0 3.2 0.00 0.00 0.00 44 1015.1
20260508170012 20 86 0.0 4.8 0.00 0.00 0.00 44 1015.0
20260508164512 20 5 0.0 1.6 0.00 0.00 0.00 43 1014.9
20260508163011 21 121 0.0 1.6 0.00 0.00 0.00 43 1015.0
20260508161517 21 101 0.0 3.2 0.00 0.00 0.00 42 1015.0
20260508160010 21 128 0.0 3.2 0.00 0.00 0.00 42 1015.0
20260508154510 21 103 0.0 3.2 0.00 0.00 0.00 42 1015.0
20260508153010 22 188 0.0 3.2 0.00 0.00 0.00 41 1014.9
20260508151509 22 169 0.0 3.2 0.00 0.00 0.00 42 1015.0
20260508150018 22 349 0.0 1.6 0.00 0.00 0.00 42 1015.1
20260508144514 22 51 0.0 1.6 0.00 0.00 0.00 40 1015.1
20260508143022 22 348 0.0 4.8 0.00 0.00 0.00 42 1015.2
20260508141507 22 303 0.0 9.7 0.00 0.00 0.00 39 1015.3
20260508140002 23 60 0.0 4.8 0.00 0.00 0.00 41 1015.4
20260508134604 22 234 0.0 8.0 0.00 0.00 0.00 42 1015.4
20260508133058 22 336 0.0 3.2 0.00 0.00 0.00 42 1015.6
20260508131558 22 76 0.0 8.0 0.00 0.00 0.00 43 1015.7
20260508130053 21 322 0.0 8.0 0.00 0.00 0.00 45 1015.9
20260508124559 20 309 0.0 12.9 0.00 0.00 0.00 45 1016.1
20260508123052 20 300 0.0 4.8 0.00 0.00 0.00 45 1016.1
20260508121551 21 344 0.0 4.8 0.00 0.00 0.00 45 1016.1
20260508120049 21 311 0.0 8.0 0.00 0.00 0.00 44 1016.1
20260508114547 21 315 1.6 9.7 0.00 0.00 0.00 44 1016.1
20260508113110 20 231 0.0 6.4 0.00 0.00 0.00 46 1016.3
20260508111544 20 321 0.0 8.0 0.00 0.00 0.00 49 1016.5
20260508110043 20 328 1.6 4.8 0.00 0.00 0.00 46 1016.5
20260508104553 20 82 0.0 4.8 0.00 0.00 0.00 46 1016.6
20260508103041 19 67 0.0 1.6 0.00 0.00 0.00 51 1016.7
20260508101543 18 330 0.0 6.4 0.00 0.00 0.00 50 1016.8
20260508100041 18 340 0.0 4.8 0.00 0.00 0.00 50 1017.0
20260508094539 19 145 0.0 3.2 0.00 0.00 0.00 49 1017.0
20260508093038 20 188 0.0 4.8 0.00 0.00 0.00 50 1017.0
20260508091534 18 35 0.0 6.4 0.00 0.00 0.00 51 1017.2
20260508090042 18 311 1.6 6.4 0.00 0.00 0.00 50 1017.3
20260508084530 18 100 0.0 8.0 0.00 0.00 0.00 53 1017.3
20260508083037 17 150 0.0 6.4 0.00 0.00 0.00 55 1017.3
20260508081529 17 331 0.0 8.0 0.00 0.00 0.00 55 1017.3
20260508080026 17 18 0.0 3.2 0.00 0.00 0.00 57 1017.3
20260508074523 16 336 0.0 3.2 0.00 0.00 0.00 60 1017.3
20260508073026 17 300 1.6 6.4 0.00 0.00 0.00 59 1017.3
20260508071518 16 87 0.0 3.2 0.00 0.00 0.00 65 1017.3
20260508070016 15 125 0.0 4.8 0.00 0.00 0.00 64 1017.5
20260508064543 15 128 0.0 3.2 0.00 0.00 0.00 66 1017.5
20260508063015 14 144 0.0 4.8 0.00 0.00 0.00 67 1017.5
20260508061507 14 147 0.0 3.2 0.00 0.00 0.00 69 1017.4
20260508060004 13 86 0.0 0.0 0.00 0.00 0.00 71 1017.3
20260508054626 12 86 0.0 0.0 0.00 0.00 0.00 76 1017.3
20260508053110 11 86 0.0 1.6 0.00 0.00 0.00 80 1017.3
20260508051559 10 78 0.0 0.0 0.00 0.00 0.00 82 1017.3
20260508050054 10 329 0.0 0.0 0.00 0.00 0.00 84 1017.2
20260508044549 8 327 0.0 0.0 0.00 0.00 0.00 85 1017.1
20260508043051 8 327 0.0 1.6 0.00 0.00 0.00 85 1016.9
20260508041545 8 328 0.0 1.6 0.00 0.00 0.00 85 1016.8
20260508040050 7 332 0.0 0.0 0.00 0.00 0.00 86 1016.7
20260508034543 7 333 0.0 0.0 0.00 0.00 0.00 85 1016.6
20260508033038 7 333 0.0 0.0 0.00 0.00 0.00 85 1016.6
20260508031549 7 333 0.0 0.0 0.00 0.00 0.00 85 1016.5
20260508030035 7 333 0.0 0.0 0.00 0.00 0.00 84 1016.4
20260508024534 8 333 0.0 0.0 0.00 0.00 0.00 84 1016.4
20260508023033 8 333 0.0 0.0 0.00 0.00 0.00 83 1016.4
20260508021530 8 333 0.0 0.0 0.00 0.00 0.00 81 1016.2
20260508020027 8 333 0.0 1.6 0.00 0.00 0.00 81 1016.1
20260508014525 9 333 0.0 0.0 0.00 0.00 0.00 80 1016.2
20260508013026 9 333 0.0 0.0 0.00 0.00 0.00 79 1016.2
20260508011524 10 333 0.0 0.0 0.00 0.00 0.00 79 1015.8
20260508010026 10 315 0.0 0.0 0.00 0.00 0.00 78 1015.8
20260508004531 10 323 0.0 0.0 0.00 0.00 0.00 79 1015.8
20260508003018 10 324 0.0 0.0 0.00 0.00 0.00 77 1015.9
20260508001515 10 324 0.0 0.0 0.00 0.00 0.00 76 1015.8
20260508000012 11 324 0.0 0.0 0.00 0.00 0.00 74 1015.8
20260507234515 11 324 0.0 0.0 0.00 0.00 0.00 73 1015.9
20260507233012 12 324 0.0 0.0 0.00 0.00 0.00 72 1016.0
20260507231503 12 324 0.0 0.0 0.00 0.00 0.00 70 1016.0
20260507230104 12 331 0.0 0.0 0.00 0.00 0.00 69 1015.9
20260507224558 13 331 0.0 0.0 0.00 0.00 0.00 68 1015.8
20260507223055 13 331 0.0 0.0 0.00 0.00 0.00 68 1015.6
20260507221558 13 331 0.0 0.0 0.00 0.00 0.00 66 1015.5
20260507220052 14 332 0.0 1.6 0.00 0.00 0.00 66 1015.4
20260507214550 14 344 0.0 0.0 0.00 0.00 0.00 66 1015.3